Regional Weather Roundup
Issued by NWS

Home | Current Version | Previous Version | Text Only | Print | Product List | Glossary Off
Versions: 1 2 3 4 5 6 7 8 9 10 11 12 13 14 15 16 17 18 19 20 21 22 23 24 25 26 27 28 29 30 31 32 33 34 35 36 37 38 39 40 41 42 43 44 45 46 47 48 49 50

000
ASUS43 KDMX 221501
RWRIA

WEATHER ROUNDUP FOR IOWA
NATIONAL WEATHER SERVICE DES MOINES IA
1000 AM CDT SAT JUL 22 2017

NOTE: "FAIR" INDICATES FEW OR NO CLOUDS BELOW 12,000 FEET WITH NO
SIGNIFICANT WEATHER AND/OR OBSTRUCTIONS TO VISIBILITY.

* - THESE STATIONS ARE NOT NWS STATIONS...THUS NOT UNDER NWS
QUALITY CONTROL.  THEY ALSO DO NOT REPORT WEATHER SUCH
AS PRECIPITATION OR FOG.

IAZ001>003-012>014-020>022-031>034-043>046-221600-
   NORTHWEST IOWA

CITY           SKY/WX    TMP DP  RH WIND       PRES   REMARKS
CARROLL *      CLOUDY    75  75 100 N13G18    29.85R
CHEROKEE *     CLOUDY    77  74  91 NW9       29.88R
DENISON *      CLOUDY    75  73  94 NW7       29.87S
ORANGE CITY *  CLOUDY    75  72  88 N5        29.91R
SHELDON *      CLOUDY    75  72  88 N5        29.89S
SIOUX CITY     CLOUDY    78  74  87 N7        29.87S HX  81
SPENCER        CLOUDY    79  72  79 NW10      29.89S HX  82
STORM LAKE *   MOSUNNY   75  72  88 NW9       29.88R
$$

IAZ055>058-069>071-079>083-090>094-221600-
   SOUTHWEST IOWA

CITY           SKY/WX    TMP DP  RH WIND       PRES   REMARKS
ATLANTIC *     SUNNY     82  77  83 NW6       29.82S HX  91
AUDUBON *      CLOUDY    77  75  94 NW9       29.85R FOG
CLARINDA *     SUNNY     84  75  74 SW7       29.82S HX  92
COUNCIL BLFS * PTSUNNY   81  79  94 NW9       29.85R HX  89
CRESTON *      SUNNY     86  73  66 W8        29.81F HX  93
HARLAN  *      CLOUDY    77  77 100 NW7       29.88R FOG
LAMONI         SUNNY     86  74  67 SW10      29.80F HX  94
RED OAK *      SUNNY     84  75  74 VRB5      29.82R HX  92
SHENANDOAH *   SUNNY     84  73  70 W3        29.80F HX  91
$$

IAZ047>049-059>061-072>074-084-221600-
   CENTRAL IOWA

CITY           SKY/WX    TMP DP  RH WIND       PRES   REMARKS
AMES           CLOUDY    80  77  90 N7        29.81R HX  87
ANKENY *       PTSUNNY   82  75  78 NW3       29.79S HX  89
BOONE *        CLOUDY    79  75  89 NW12      29.82R HX  82
CHARITON *     MOSUNNY   88  73  62 SW13      29.78S HX  96
DES MOINES     PTSUNNY   86  76  71 SW5       29.77S HX  96
GRINNELL*      PTSUNNY   78  72  82 S6        29.83R
KNOXVILLE *    MOSUNNY   84  75  74 S6        29.77S HX  92
MARSHALLTOWN   CLOUDY    77  72  84 NE6       29.83S
NEWTON *       PTSUNNY   79  73  83 S6G12     29.80R HX  82
PELLA *        MOSUNNY   82  73  73 S8        29.79F HX  88
$$

IAZ004>006-015-016-023>025-035-036-221600-
   NORTH CENTRAL IOWA

CITY           SKY/WX    TMP DP  RH WIND       PRES   REMARKS
ALGONA *       PTSUNNY   73  73 100 NW9G16    29.87R
CLARION *      CLOUDY    73  73 100 N5        29.85R
ESTHERVILLE    CLOUDY    75  72  90 N12       29.88S
FORT DODGE *   CLOUDY    73  72  94 NW6       29.86R
MASON CITY     CLOUDY    72  71  97 N7        29.88R
FOREST CITY *  CLOUDY    72  72 100 N9        29.86S
WEBSTER CITY * CLOUDY    77  73  88 CALM      29.81S
IOWA FALLS *   CLOUDY    76  72  87 CALM      29.86S
$$

IAZ007>011-017>019-026>030-037>042-050>054-066-221600-
   NORTHEAST IOWA

CITY           SKY/WX    TMP DP  RH WIND       PRES   REMARKS
CEDAR RAPIDS   CLOUDY    75  72  90 SE3       29.83R
CHARLES CITY * CLOUDY    73  73 100 CALM      29.86S
DECORAH *      CLOUDY    73  72  94 CALM      29.86R
DUBUQUE        CLOUDY    76  69  79 N5        29.85S
MONTICELLO *   MOSUNNY   77  70  78 CALM      29.83R
OELWEIN *        N/A    N/A N/A N/A MISG        N/A
WATERLOO       CLOUDY    74  70  87 NE3       29.84R
$$

IAZ064-065-067-068-078-221600-
   EAST CENTRAL IOWA

CITY           SKY/WX    TMP DP  RH WIND       PRES   REMARKS
DAVENPORT      MOSUNNY   77  69  76 S5        29.84R
IOWA CITY      CLOUDY    78  70  76 SE6       29.83R HX  80
MUSCATINE *    PTSUNNY   75  70  83 S12G20    29.82R
QUAD CITIES    MOSUNNY   78  69  73 VRB5      29.80F HX  80
$$

IAZ062-063-075>077-085>089-095>099-221600-
   SOUTHEAST IOWA

CITY           SKY/WX    TMP DP  RH WIND       PRES   REMARKS
BURLINGTON     CLOUDY    75  71  87 S13       29.80F
FAIRFIELD *    CLOUDY    79  72  78 S14G21    29.79S HX  82
FORT MADISON * PTSUNNY   75  72  88 S12       29.83R
KEOKUK *       CLOUDY    75  72  88 S10G20    29.81F
OSKALOOSA *      N/A     80  73  77 S12       29.79F HX  84
OTTUMWA        CLOUDY    80  75  84 S12       29.78F HX  85
WASHINGTON *   CLOUDY    77  73  88 S13       29.81R
$$

ABBREVIATIONS USED IN REMARKS
   TC - TEMPERATURES IN CELSIUS
  WCI - WIND CHILL INDEX
   HX - HEAT INDEX
  VSB - VISIBILITY
$$




USA.gov is the U.S. government's official web portal to all federal, state and local government web resources and services.